Home   Weather   Boa Vista   Past weeks

Flag for Brazil Past Weather in Boa Vista, Roraima, Brazil — Yesterday and Last 2 Weeks

Now
77 °F

Clear.


Feels Like: 79 °F
Forecast: 76 / 95 °F
Wind: 13 mph from East

Location: Boa Vista Aeropor-To

Current Time: Jan 22, 2018 at 7:06:00 am

Latest Report: Jan 22, 2018 at 6:00 am


Visibility: 10 mi

Pressure: 29.80 "Hg

Humidity: 74%

Dew Point: 68 °F

Location of Boa VistaLocation

Past Weather in Boa Vista — Graph

°F

Boa Vista Temperature Yesterday

Maximum temperature yesterday: 93 °F (at 1:05 pm)
Minimum temperature yesterday: 77 °F (at 4:00 am)
Average temperature yesterday: 84 °F

High & Low Weather Summary for the Past Weeks

 TemperatureHumidityPressure
High95 °F (Jan 9, 2:00 pm)100% (Jan 16, 11:00 pm)29.98 "Hg (Jan 16, 11:00 pm)
Low39 °F (Jan 17, 12:00 am)36% (Jan 10, 5:00 pm)29.56 "Hg (Jan 8, 5:00 am)
Average84 °F61%29.86 "Hg
* Reported Jan 7 6:00 am — Jan 22 6:00 am, Boa Vista. Weather by CustomWeather, © 2018

Note: Actual official high and low records may vary slightly from our data, if they occured in-between our weather recording intervals... More about our weather records

Advertising

Boa Vista Weather History for the Previous 24 Hours

Scroll right to see more
 ConditionsComfort  
Time TempWeatherWind HumidityBarometerVisibility
6:00 am
Mon, Jan 22
77 °FClear.13 mph74%29.80 "Hg10 mi
5:00 am79 °FClear.10 mph70%29.80 "Hg10 mi
4:00 am79 °FClear.8 mph70%29.77 "Hg10 mi
3:00 am79 °FClear.6 mph70%29.77 "Hg10 mi
2:00 am79 °FClear.5 mph70%29.80 "Hg10 mi
1:00 am81 °FClear.5 mph66%29.80 "Hg10 mi
12:00 am81 °FClear.7 mph66%29.83 "Hg10 mi
11:00 pm
Sun, Jan 21
82 °FClear.9 mph62%29.83 "Hg10 mi
10:00 pm82 °FClear.12 mph62%29.83 "Hg10 mi
9:00 pm84 °FClear.9 mph55%29.80 "Hg10 mi
8:00 pm84 °FClear.8 mph55%29.77 "Hg10 mi
7:00 pm88 °FClear.9 mph46%29.77 "Hg10 mi
6:00 pm90 °FScattered clouds.13 mph43%29.74 "HgN/A
5:00 pm91 °FScattered clouds.12 mph41%29.74 "HgN/A
4:00 pm90 °FPartly sunny.12 mph43%29.74 "HgN/A
3:00 pm91 °FBroken clouds.10 mph44%29.77 "HgN/A
2:00 pm91 °FBroken clouds.13 mph41%29.83 "HgN/A
1:05 pm93 °FPartly sunny.14 mph41%29.86 "HgN/A
12:00 pm91 °FScattered clouds.15 mph46%29.89 "HgN/A
11:00 am88 °FScattered clouds.15 mph49%29.92 "HgN/A
10:00 am86 °FScattered clouds.17 mph55%29.95 "HgN/A
9:00 am82 °FSunny.16 mph62%29.92 "Hg10 mi
8:00 am79 °FSunny.14 mph70%29.92 "Hg10 mi
7:00 am77 °FSunny.10 mph79%29.89 "Hg10 mi
Weather by CustomWeather, © 2018

See weather overview